TimeEDT,TemperatureF,Dew PointF,Humidity,Sea Level PressureIn,VisibilityMPH,Wind Direction,Wind SpeedMPH,Gust SpeedMPH,PrecipitationIn,Events,Conditions,WindDirDegrees,DateUTC
1:53 AM,53.1,51.1,93,30.12,10.0,Calm,Calm,-,N/A,,Clear,0,2013-08-16 05:53:00
2:53 AM,54.0,53.1,97,30.12,10.0,Calm,Calm,-,N/A,,Clear,0,2013-08-16 06:53:00
3:53 AM,53.1,52.0,96,30.10,10.0,Calm,Calm,-,N/A,,Clear,0,2013-08-16 07:53:00
4:53 AM,52.0,50.0,93,30.10,10.0,Calm,Calm,-,N/A,,Clear,0,2013-08-16 08:53:00
5:53 AM,51.1,48.9,92,30.11,9.0,Calm,Calm,-,N/A,,Clear,0,2013-08-16 09:53:00
6:53 AM,50.0,48.9,96,30.12,10.0,Calm,Calm,-,N/A,,Clear,0,2013-08-16 10:53:00
7:53 AM,55.0,53.1,93,30.14,10.0,Calm,Calm,-,N/A,,Clear,0,2013-08-16 11:53:00
8:53 AM,62.1,55.0,78,30.14,10.0,Calm,Calm,-,N/A,,Clear,0,2013-08-16 12:53:00
9:53 AM,66.9,55.0,66,30.14,10.0,Calm,Calm,-,N/A,,Clear,0,2013-08-16 13:53:00
10:53 AM,70.0,53.1,55,30.14,10.0,East,5.8,-,N/A,,Clear,100,2013-08-16 14:53:00
11:53 AM,73.9,53.1,48,30.14,10.0,ESE,9.2,-,N/A,,Mostly Cloudy,110,2013-08-16 15:53:00
12:53 PM,73.0,55.0,53,30.14,10.0,NE,4.6,-,N/A,,Mostly Cloudy,50,2013-08-16 16:53:00
1:53 PM,73.9,54.0,50,30.14,10.0,ENE,8.1,-,N/A,,Mostly Cloudy,60,2013-08-16 17:53:00
2:53 PM,75.9,55.0,48,30.13,10.0,NE,10.4,-,N/A,,Mostly Cloudy,50,2013-08-16 18:53:00
3:53 PM,75.9,54.0,46,30.11,10.0,NNE,11.5,16.1,N/A,,Partly Cloudy,30,2013-08-16 19:53:00
4:53 PM,77.0,54.0,45,30.11,10.0,NE,5.8,-,N/A,,Partly Cloudy,50,2013-08-16 20:53:00
5:53 PM,75.0,54.0,48,30.12,10.0,ENE,6.9,-,N/A,,Mostly Cloudy,70,2013-08-16 21:53:00
6:53 PM,73.9,55.0,52,30.12,10.0,NE,6.9,-,N/A,,Partly Cloudy,50,2013-08-16 22:53:00
7:53 PM,72.0,55.9,57,30.12,10.0,NNE,6.9,-,N/A,,Clear,30,2013-08-16 23:53:00
8:53 PM,66.9,55.9,68,30.13,10.0,NNE,4.6,-,N/A,,Clear,30,2013-08-17 00:53:00
9:53 PM,66.9,54.0,63,30.14,10.0,NE,5.8,-,N/A,,Clear,40,2013-08-17 01:53:00
10:53 PM,64.9,53.1,65,30.15,10.0,NE,3.5,-,N/A,,Clear,50,2013-08-17 02:53:00
11:53 PM,64.9,53.1,65,30.14,10.0,ENE,4.6,-,N/A,,Clear,60,2013-08-17 03:53:00